This is the latest recevied weather packets stored in our database for station/object KC2BRB-1. If no packets are shown the sender has not sent any weather packets the latest 10 day(s).
| Time | Temp. | Humidity | Pressure | Rain* | Wind** | Luminosity | Snow |
|---|---|---|---|---|---|---|---|
| 1777566167 | 28.89° C | 61% | 1009.6 hPa | 0 mm | - | - | - |
| 1777565867 | 28.89° C | 61% | 1009.6 hPa | 0 mm | - | - | - |
| 1777565746 | 28.89° C | 60% | 1009.8 hPa | 0 mm | - | - | - |
| 1777565567 | 28.89° C | 60% | 1009.8 hPa | 0 mm | - | - | - |
| 1777565267 | 28.89° C | 60% | 1009.8 hPa | 0 mm | - | - | - |
| 1777564967 | 28.33° C | 62% | 1009.9 hPa | 0 mm | - | - | - |
| 1777564667 | 28.33° C | 62% | 1009.9 hPa | 0 mm | - | - | - |
| 1777564367 | 27.78° C | 63% | 1009.9 hPa | 0 mm | - | - | - |
| 1777564068 | 27.78° C | 63% | 1009.9 hPa | 0 mm | - | - | - |
| 1777563767 | 27.78° C | 65% | 1009.9 hPa | 0 mm | - | - | - |
| 1777563467 | 27.78° C | 65% | 1009.9 hPa | 0 mm | - | - | - |
| 1777563167 | 27.78° C | 69% | 1010.2 hPa | 0 mm | - | - | - |
| 1777562948 | 27.78° C | 69% | 1010.2 hPa | 0 mm | - | - | - |
| 1777562867 | 27.78° C | 69% | 1010.2 hPa | 0 mm | - | - | - |
| 1777562568 | 27.22° C | 71% | 1010.2 hPa | 0 mm | - | - | - |
| 1777562267 | 27.22° C | 71% | 1010.2 hPa | 0 mm | - | - | - |
| 1777561667 | 26.67° C | 71% | 1010.1 hPa | 0 mm | - | - | - |
| 1777561367 | 26.67° C | 71% | 1010 hPa | 0 mm | - | - | - |
| 1777561277 | 26.67° C | 71% | 1010 hPa | 0 mm | - | - | - |
| 1777561067 | 26.67° C | 71% | 1010 hPa | 0 mm | - | - | - |
| 1777560767 | 26.11° C | 76% | 1010 hPa | 0 mm | - | - | - |
| 1777560167 | 25.56° C | 79% | 1009.8 hPa | 0 mm | - | - | - |
| 1777559867 | 25.56° C | 79% | 1009.8 hPa | 0 mm | - | - | - |
| 1777559567 | 25° C | 81% | 1009.8 hPa | 0 mm | - | - | - |
| 1777558967 | 24.44° C | 84% | 1009.8 hPa | 0 mm | - | - | - |
* Rain latest hour (hover to see other rain measurements)
** Current wind speed in m/s (hover to see current wind gust speed)